�������l�o���
Date,Time,MP-1(��Sv/h),MP-2(��Sv/h),MP-3(��Sv/h),MP-4(��Sv/h),MP-5(��Sv/h),MP-6(��Sv/h),MP-7(��Sv/h),MP-8(��Sv/h),����,����(m/s),���J
2018/01/10,00:00,0.879,1.462,0.927,1.745,1.176,0.492,0.875,0.844,���쐼,6.6,��
2018/01/10,00:10,0.879,1.463,0.925,1.741,1.172,0.491,0.876,0.842,���쐼,5.2,��
2018/01/10,00:20,0.880,1.462,0.922,1.744,1.172,0.492,0.877,0.841,���쐼,4.4,��
2018/01/10,00:30,0.881,1.463,0.925,1.744,1.174,0.492,0.876,0.843,��,6.4,��
2018/01/10,00:40,0.880,1.461,0.923,1.744,1.173,0.491,0.874,0.842,���쐼,5.9,��
2018/01/10,00:50,0.880,1.462,0.923,1.741,1.172,0.490,0.875,0.841,���쐼,6.2,��
2018/01/10,01:00,0.880,1.461,0.925,1.744,1.174,0.492,0.876,0.841,���쐼,6.2,��
2018/01/10,01:10,0.878,1.461,0.926,1.742,1.172,0.493,0.875,0.842,��,7.6,��
2018/01/10,01:20,0.882,1.463,0.923,1.746,1.175,0.493,0.878,0.842,��,9.5,��
2018/01/10,01:30,0.881,1.463,0.924,1.743,1.172,0.493,0.877,0.843,���쐼,8.2,��
2018/01/10,01:40,0.880,1.462,0.926,1.743,1.171,0.492,0.875,0.840,��,8.7,��
2018/01/10,01:50,0.881,1.463,0.922,1.744,1.172,0.490,0.877,0.839,���쐼,8.1,��
2018/01/10,02:00,0.880,1.464,0.924,1.745,1.172,0.491,0.877,0.840,��,8.3,��
2018/01/10,02:10,0.882,1.463,0.923,1.744,1.171,0.491,0.877,0.842,���쐼,9.1,��
2018/01/10,02:20,0.881,1.462,0.924,1.745,1.172,0.491,0.878,0.841,��,8.3,��
2018/01/10,02:30,0.879,1.462,0.923,1.742,1.170,0.493,0.879,0.842,���쐼,6.2,��
2018/01/10,02:40,0.880,1.463,0.925,1.742,1.172,0.494,0.877,0.842,���쐼,5.6,��
2018/01/10,02:50,0.878,1.463,0.925,1.745,1.173,0.493,0.876,0.840,���쐼,4.5,��
2018/01/10,03:00,0.879,1.462,0.923,1.742,1.173,0.493,0.876,0.840,���쐼,4.4,��
2018/01/10,03:10,0.878,1.465,0.924,1.743,1.174,0.493,0.877,0.843,�쐼,4.8,��
2018/01/10,03:20,0.878,1.463,0.925,1.741,1.173,0.493,0.876,0.841,���쐼,4.9,��
2018/01/10,03:30,0.879,1.460,0.924,1.741,1.172,0.492,0.877,0.842,���쐼,5.5,��
2018/01/10,03:40,0.879,1.465,0.923,1.744,1.173,0.492,0.878,0.841,���쐼,7.1,��
2018/01/10,03:50,0.881,1.463,0.925,1.741,1.172,0.493,0.876,0.841,��,8.3,��
2018/01/10,04:00,0.879,1.465,0.925,1.741,1.175,0.493,0.878,0.842,���쐼,9.5,��
2018/01/10,04:10,0.877,1.463,0.926,1.744,1.174,0.494,0.876,0.841,���쐼,9.0,��
2018/01/10,04:20,0.880,1.464,0.927,1.743,1.174,0.491,0.878,0.841,���쐼,8.6,��
2018/01/10,04:30,0.879,1.463,0.923,1.743,1.173,0.491,0.877,0.841,���쐼,9.8,��
2018/01/10,04:40,0.878,1.463,0.922,1.744,1.170,0.491,0.878,0.840,��,9.4,��
2018/01/10,04:50,0.880,1.463,0.927,1.746,1.172,0.493,0.878,0.842,���쐼,10.3,��
2018/01/10,05:00,0.879,1.463,0.924,1.744,1.170,0.492,0.877,0.840,���쐼,11.3,��
2018/01/10,05:10,0.878,1.462,0.925,1.744,1.172,0.491,0.878,0.843,���쐼,12.1,��
2018/01/10,05:20,0.880,1.462,0.926,1.745,1.170,0.492,0.879,0.841,���쐼,11.4,��
2018/01/10,05:30,0.880,1.461,0.925,1.746,1.171,0.492,0.877,0.842,��,13.3,��
2018/01/10,05:40,0.878,1.463,0.924,1.743,1.173,0.492,0.878,0.841,���쐼,11.1,��
2018/01/10,05:50,0.882,1.463,0.922,1.747,1.170,0.492,0.879,0.840,���쐼,10.0,��
2018/01/10,06:00,0.880,1.465,0.923,1.744,1.171,0.493,0.878,0.843,�쐼,7.3,��
2018/01/10,06:10,0.878,1.464,0.924,1.746,1.171,0.490,0.878,0.842,���쐼,6.5,��
2018/01/10,06:20,0.880,1.465,0.926,1.746,1.171,0.492,0.876,0.843,��,7.3,��
2018/01/10,06:30,0.880,1.462,0.925,1.745,1.172,0.492,0.879,0.841,���쐼,4.9,��
2018/01/10,06:40,0.880,1.461,0.927,1.745,1.176,0.491,0.878,0.841,�쐼,5.5,��
2018/01/10,06:50,0.880,1.460,0.925,1.744,1.174,0.492,0.876,0.842,��,4.0,��
2018/01/10,07:00,0.881,1.461,0.923,1.743,1.173,0.491,0.878,0.839,���쐼,5.0,��
2018/01/10,07:10,0.879,1.462,0.925,1.745,1.172,0.492,0.880,0.842,���쐼,6.7,��
2018/01/10,07:20,0.881,1.467,0.925,1.744,1.173,0.492,0.877,0.841,��,6.0,��
2018/01/10,07:30,0.880,1.465,0.924,1.743,1.173,0.492,0.877,0.841,��,4.9,��
2018/01/10,07:40,0.878,1.463,0.927,1.744,1.177,0.492,0.876,0.840,���쐼,3.9,��
2018/01/10,07:50,0.879,1.464,0.926,1.747,1.174,0.493,0.877,0.842,���쐼,5.8,��
2018/01/10,08:00,0.882,1.463,0.925,1.749,1.175,0.492,0.877,0.842,���쐼,5.4,��
2018/01/10,08:10,0.879,1.462,0.927,1.744,1.175,0.492,0.878,0.841,���쐼,5.2,��
2018/01/10,08:20,0.883,1.463,0.926,1.747,1.172,0.492,0.875,0.841,���쐼,5.5,��
2018/01/10,08:30,0.882,1.462,0.926,1.748,1.175,0.491,0.879,0.841,���쐼,6.8,��
2018/01/10,08:40,0.884,1.466,0.925,1.748,1.173,0.491,0.878,0.840,���쐼,7.8,��
2018/01/10,08:50,0.882,1.464,0.927,1.747,1.174,0.492,0.879,0.841,���쐼,7.1,��
2018/01/10,09:00,0.884,1.463,0.925,1.749,1.174,0.491,0.878,0.842,���쐼,5.9,��
2018/01/10,09:10,0.883,1.467,0.925,1.749,1.175,0.492,0.879,0.841,���쐼,6.0,��
2018/01/10,09:20,0.885,1.465,0.926,1.746,1.174,0.492,0.879,0.842,���쐼,11.0,��
2018/01/10,09:30,0.885,1.464,0.926,1.748,1.175,0.493,0.880,0.842,��,8.9,��
2018/01/10,09:40,0.885,1.468,0.926,1.749,1.176,0.492,0.880,0.842,��,8.9,��
2018/01/10,09:50,0.886,1.467,0.927,1.749,1.175,0.494,0.878,0.842,���쐼,9.7,��
2018/01/10,10:00,0.884,1.464,0.927,1.749,1.177,0.495,0.879,0.842,��,9.6,��
2018/01/10,10:10,0.883,1.468,0.926,1.749,1.179,0.493,0.878,0.844,��,9.3,��
2018/01/10,10:20,0.885,1.467,0.927,1.752,1.179,0.494,0.878,0.844,���쐼,11.1,��
2018/01/10,10:30,0.885,1.466,0.928,1.752,1.177,0.494,0.879,0.841,���쐼,11.6,��
2018/01/10,10:40,0.885,1.464,0.928,1.750,1.178,0.494,0.877,0.842,���쐼,10.7,��
2018/01/10,10:50,0.884,1.467,0.926,1.751,1.178,0.493,0.878,0.843,��,8.6,��
2018/01/10,11:00,0.884,1.465,0.926,1.752,1.181,0.495,0.876,0.842,��,10.2,��
2018/01/10,11:10,0.883,1.467,0.928,1.753,1.180,0.494,0.878,0.842,��,8.7,��
2018/01/10,11:20,0.885,1.464,0.929,1.754,1.182,0.493,0.877,0.844,-,-,��
2018/01/10,11:30,0.884,1.467,0.928,1.753,1.181,0.494,0.877,0.842,-,-,��
2018/01/10,11:40,0.886,1.469,0.926,1.753,1.183,0.494,0.877,0.844,-,-,��
2018/01/10,11:50,0.884,1.467,0.928,1.755,1.179,0.495,0.876,0.844,-,-,��
2018/01/10,12:00,0.885,1.468,0.928,1.756,1.181,0.495,0.876,0.843,-,-,��
2018/01/10,12:10,0.888,1.468,0.925,1.754,1.181,0.494,0.880,0.842,-,-,��
2018/01/10,12:20,0.888,1.468,0.928,1.753,1.180,0.494,0.879,0.843,-,-,��
2018/01/10,12:30,0.890,1.469,0.930,1.754,1.181,0.492,0.878,0.844,-,-,��
2018/01/10,12:40,0.887,1.470,0.931,1.754,1.181,0.495,0.879,0.844,-,-,��
2018/01/10,12:50,0.888,1.471,0.929,1.753,1.183,0.494,0.879,0.844,-,-,��
2018/01/10,13:00,0.886,1.469,0.929,1.753,1.182,0.492,0.880,0.843,-,-,��
2018/01/10,13:10,0.889,1.471,0.929,1.757,1.183,0.493,0.880,0.845,-,-,��
2018/01/10,13:20,0.887,1.468,0.928,1.754,1.184,0.494,0.882,0.844,-,-,��
2018/01/10,13:30,0.887,1.469,0.931,1.755,1.183,0.495,0.881,0.843,-,-,��
2018/01/10,13:40,0.889,1.467,0.930,1.757,1.186,0.495,0.880,0.840,-,-,��
2018/01/10,13:50,0.889,1.468,0.930,1.756,1.186,0.496,0.881,0.841,-,-,��
2018/01/10,14:00,0.890,1.469,0.932,1.757,1.183,0.495,0.879,0.844,-,-,��
2018/01/10,14:10,0.890,1.465,0.930,1.758,1.185,0.496,0.880,0.841,-,-,��
2018/01/10,14:20,0.889,1.466,0.931,1.756,1.184,0.495,0.881,0.840,-,-,��
2018/01/10,14:30,0.890,1.468,0.930,1.759,1.185,0.494,0.880,0.841,-,-,��
2018/01/10,14:40,0.890,1.469,0.929,1.755,1.185,0.495,0.880,0.843,-,-,��
2018/01/10,14:50,0.890,1.472,0.929,1.755,1.182,0.495,0.880,0.843,-,-,��
2018/01/10,15:00,0.889,1.472,0.930,1.757,1.184,0.494,0.880,0.846,-,-,��
2018/01/10,15:10,0.890,1.474,0.930,1.756,1.182,0.494,0.880,0.842,-,-,��
2018/01/10,15:20,0.889,1.475,0.930,1.754,1.185,0.495,0.880,0.844,-,-,��
2018/01/10,15:30,0.890,1.473,0.930,1.755,1.183,0.495,0.881,0.843,���k��,4.6,��
2018/01/10,15:40,0.891,1.474,0.929,1.757,1.183,0.494,0.878,0.842,��,3.8,��
2018/01/10,15:50,0.889,1.475,0.932,1.757,1.185,0.494,0.879,0.843,��,3.7,��
2018/01/10,16:00,0.890,1.475,0.930,1.753,1.186,0.494,0.879,0.843,���쐼,4.2,��
2018/01/10,16:10,0.891,1.479,0.931,1.757,1.182,0.494,0.880,0.841,���k��,3.7,��
2018/01/10,16:20,0.888,1.475,0.932,1.757,1.182,0.496,0.880,0.844,���k��,4.2,��
2018/01/10,16:30,0.886,1.478,0.932,1.752,1.187,0.492,0.878,0.842,�k��,5.8,��
2018/01/10,16:40,0.886,1.474,0.930,1.754,1.186,0.494,0.881,0.841,���k��,4.5,��
2018/01/10,16:50,0.888,1.478,0.930,1.754,1.183,0.493,0.878,0.843,���k��,6.0,��
2018/01/10,17:00,0.884,1.475,0.930,1.754,1.184,0.493,0.879,0.843,�k��,3.8,��
2018/01/10,17:10,0.885,1.475,0.931,1.758,1.183,0.493,0.879,0.844,���k��,4.6,��
2018/01/10,17:20,0.885,1.475,0.930,1.755,1.183,0.493,0.879,0.844,�k��,3.8,��
2018/01/10,17:30,0.886,1.473,0.930,1.757,1.184,0.492,0.878,0.842,�k��,3.0,��
2018/01/10,17:40,0.884,1.476,0.929,1.753,1.184,0.491,0.878,0.842,�k�k��,3.0,��
2018/01/10,17:50,0.885,1.474,0.929,1.756,1.184,0.492,0.878,0.842,�k�k��,4.2,��
2018/01/10,18:00,0.888,1.475,0.930,1.754,1.182,0.492,0.880,0.842,�k��,5.5,��
2018/01/10,18:10,0.888,1.473,0.927,1.754,1.182,0.493,0.878,0.841,���k��,6.9,��
2018/01/10,18:20,0.888,1.475,0.931,1.753,1.183,0.493,0.879,0.840,���k��,7.6,��
2018/01/10,18:30,0.887,1.475,0.929,1.754,1.184,0.493,0.878,0.843,��,6.7,��
2018/01/10,18:40,0.887,1.474,0.928,1.753,1.184,0.492,0.878,0.842,��,7.0,��
2018/01/10,18:50,0.887,1.475,0.929,1.756,1.183,0.493,0.879,0.841,��,7.4,��
2018/01/10,19:00,0.887,1.474,0.929,1.756,1.183,0.492,0.879,0.841,��,5.8,��
2018/01/10,19:10,0.885,1.475,0.930,1.757,1.184,0.493,0.878,0.843,��,6.3,��
2018/01/10,19:20,0.886,1.478,0.929,1.754,1.186,0.493,0.878,0.841,��,7.2,��
2018/01/10,19:30,0.884,1.476,0.928,1.754,1.184,0.492,0.878,0.840,��,4.2,��
2018/01/10,19:40,0.884,1.476,0.928,1.758,1.183,0.494,0.879,0.841,���쐼,3.3,��
2018/01/10,19:50,0.883,1.476,0.929,1.757,1.182,0.492,0.879,0.842,���쐼,2.0,��
2018/01/10,20:00,0.885,1.475,0.931,1.752,1.182,0.492,0.879,0.842,���k��,2.5,��
2018/01/10,20:10,0.885,1.475,0.929,1.757,1.183,0.491,0.878,0.842,���k��,3.4,��
2018/01/10,20:20,0.886,1.476,0.928,1.753,1.182,0.492,0.877,0.842,���k��,5.3,��
2018/01/10,20:30,0.884,1.473,0.927,1.755,1.183,0.493,0.877,0.844,���k��,7.0,��
2018/01/10,20:40,0.883,1.475,0.931,1.755,1.185,0.493,0.877,0.843,���k��,7.2,��
2018/01/10,20:50,0.884,1.474,0.930,1.757,1.184,0.492,0.876,0.841,���k��,7.9,��
2018/01/10,21:00,0.884,1.476,0.930,1.754,1.183,0.493,0.879,0.841,���k��,5.8,��
2018/01/10,21:10,0.884,1.474,0.929,1.756,1.182,0.491,0.878,0.843,�k�k��,4.1,��
2018/01/10,21:20,0.885,1.476,0.929,1.755,1.182,0.493,0.877,0.843,�k�k��,5.0,��
2018/01/10,21:30,0.886,1.475,0.929,1.758,1.180,0.493,0.876,0.841,�k�k��,6.8,��
2018/01/10,21:40,0.886,1.477,0.927,1.757,1.181,0.493,0.877,0.842,�k�k��,4.0,��
2018/01/10,21:50,0.887,1.475,0.929,1.755,1.183,0.492,0.878,0.843,�k,5.5,��
2018/01/10,22:00,0.885,1.477,0.928,1.754,1.181,0.490,0.877,0.840,�k�k��,4.0,��
2018/01/10,22:10,0.885,1.475,0.929,1.756,1.181,0.492,0.877,0.842,�k�k��,3.8,��
2018/01/10,22:20,0.884,1.474,0.930,1.755,1.182,0.491,0.878,0.842,�k�k��,4.2,��
2018/01/10,22:30,0.882,1.477,0.929,1.755,1.181,0.492,0.879,0.843,�k�k��,5.4,��
2018/01/10,22:40,0.883,1.474,0.928,1.755,1.182,0.492,0.878,0.843,�k�k��,5.7,��
2018/01/10,22:50,0.882,1.473,0.926,1.753,1.179,0.491,0.877,0.841,�k�k��,4.8,��
2018/01/10,23:00,0.882,1.473,0.928,1.755,1.180,0.490,0.878,0.842,�k�k��,5.1,��
2018/01/10,23:10,0.882,1.475,0.927,1.752,1.180,0.492,0.875,0.841,�k�k��,4.9,��
2018/01/10,23:20,0.883,1.474,0.928,1.755,1.180,0.491,0.876,0.842,�k�k��,5.0,��
2018/01/10,23:30,0.883,1.473,0.928,1.755,1.181,0.491,0.876,0.842,�k�k��,5.7,��
2018/01/10,23:40,0.882,1.474,0.929,1.750,1.181,0.491,0.877,0.840,�k�k��,6.1,��
2018/01/10,23:50,0.882,1.475,0.929,1.752,1.182,0.490,0.876,0.839,�k�k��,7.0,��
